NR6G-12 Weather Reports


time (UTC)temp
F
wind
direction
speed
knots
gust
knots
rain 1hr
in
rain 24hr
in
rain mn
in
humidity
%
barometer
mb
20260507210401 67 0 0.0 0.0 0.00 0.00 0.00 66 1020.4
20260507205801 67 0 0.0 0.0 0.00 0.00 0.00 68 1020.4
20260507205201 67 0 0.0 0.0 0.00 0.00 0.00 68 1020.4
20260507204601 66 0 0.0 0.0 0.00 0.00 0.00 70 1020.5
20260507204001 66 0 0.0 0.0 0.00 0.00 0.00 70 1020.6
20260507203401 66 0 0.0 0.0 0.00 0.00 0.00 70 1019.9
20260507202801 66 0 0.0 0.0 0.00 0.00 0.00 69 1019.9
20260507202201 66 0 0.0 0.0 0.00 0.00 0.00 68 1019.9
20260507201601 66 0 0.0 4.3 0.00 0.00 0.00 69 1019.9
20260507201001 66 223 0.9 4.3 0.00 0.00 0.00 70 1020.0
20260507200401 66 0 0.0 4.3 0.00 0.00 0.00 72 1020.1
20260507195801 65 0 0.0 4.3 0.00 0.00 0.00 69 1020.1
20260507195201 66 225 0.9 4.3 0.00 0.00 0.00 67 1020.0
20260507194601 67 0 0.0 0.0 0.00 0.00 0.00 68 1020.1
20260507194001 66 0 0.0 0.0 0.00 0.00 0.00 70 1020.1
20260507193401 66 0 0.0 0.0 0.00 0.00 0.00 70 1020.2
20260507192801 66 0 0.0 0.0 0.00 0.00 0.00 71 1020.2
20260507192201 66 0 0.0 0.0 0.00 0.00 0.00 70 1020.2
20260507191601 66 0 0.0 0.0 0.00 0.00 0.00 70 1020.2
20260507191001 65 0 0.0 0.0 0.00 0.00 0.00 70 1020.2
20260507190401 65 0 0.0 0.0 0.00 0.00 0.00 70 1020.2
20260507185801 64 0 0.0 0.0 0.00 0.00 0.00 71 1020.3
20260507185201 64 0 0.0 0.0 0.00 0.00 0.00 71 1020.3
20260507184601 64 0 0.0 0.0 0.00 0.00 0.00 71 1020.4
20260507184001 64 0 0.0 0.0 0.00 0.00 0.00 72 1020.4
20260507183401 64 0 0.0 0.0 0.00 0.00 0.00 69 1020.4
20260507182801 65 0 0.0 0.0 0.00 0.00 0.00 69 1020.4
20260507182201 65 0 0.0 0.0 0.00 0.00 0.00 68 1020.4
20260507181601 65 0 0.0 0.0 0.00 0.00 0.00 68 1020.5
20260507181001 65 0 0.0 1.7 0.00 0.00 0.00 70 1020.5
20260507180401 65 0 0.0 1.7 0.00 0.00 0.00 69 1020.6
20260507175801 65 0 0.0 1.7 0.00 0.00 0.00 70 1020.5
20260507175201 66 0 0.0 0.9 0.00 0.00 0.00 67 1020.6
20260507174601 65 0 0.0 0.0 0.00 0.00 0.00 70 1020.6
20260507174001 65 0 0.0 0.0 0.00 0.00 0.00 67 1020.6
20260507173401 65 0 0.0 0.0 0.00 0.00 0.00 68 1020.5
20260507172801 65 0 0.0 0.0 0.00 0.00 0.00 66 1020.6
20260507172201 65 0 0.0 0.0 0.00 0.00 0.00 68 1020.5
20260507171601 64 0 0.0 0.0 0.00 0.00 0.00 69 1020.5
20260507171001 63 0 0.0 0.0 0.00 0.00 0.00 72 1020.6
20260507170401 63 0 0.0 0.0 0.00 0.00 0.00 71 1020.6
20260507165801 63 0 0.0 0.0 0.00 0.00 0.00 69 1020.7
20260507165201 63 0 0.0 0.0 0.00 0.00 0.00 70 1020.7
20260507164601 63 0 0.0 0.0 0.00 0.00 0.00 69 1020.0
20260507164001 63 0 0.0 0.0 0.00 0.00 0.00 68 1020.0
20260507163401 64 0 0.0 0.9 0.00 0.00 0.00 68 1020.1
20260507162801 63 0 0.0 0.9 0.00 0.00 0.00 69 1020.1
20260507162201 63 0 0.0 0.0 0.00 0.00 0.00 71 1020.1
20260507161601 63 0 0.0 0.0 0.00 0.00 0.00 67 1020.2
20260507161001 62 0 0.0 0.0 0.00 0.00 0.00 60 1020.2
20260507160401 62 0 0.0 0.0 0.00 0.00 0.00 61 1020.2
20260507155801 62 0 0.0 0.0 0.00 0.00 0.00 62 1020.3
20260507155201 62 0 0.0 0.0 0.00 0.00 0.00 64 1020.3
20260507154603 61 0 0.0 0.0 0.00 0.00 0.00 62 1020.3
20260507154001 61 0 0.0 0.0 0.00 0.00 0.00 62 1020.3
20260507153401 60 0 0.0 0.0 0.00 0.00 0.00 66 1020.3
20260507152801 60 0 0.0 0.0 0.00 0.00 0.00 67 1020.4
20260507152201 60 0 0.0 0.0 0.00 0.00 0.00 67 1020.5
20260507151601 60 0 0.0 0.0 0.00 0.00 0.00 66 1020.5
20260507151001 60 0 0.0 0.9 0.00 0.00 0.00 69 1020.5
20260507150401 60 0 0.0 0.0 0.00 0.00 0.00 69 1020.5
20260507145801 59 0 0.0 0.0 0.00 0.00 0.00 68 1020.5
20260507145201 59 0 0.0 0.0 0.00 0.00 0.00 70 1020.4
20260507144001 59 0 0.0 0.0 0.00 0.00 0.00 74 1020.6
20260507143401 58 0 0.0 0.0 0.00 0.00 0.00 71 1020.6
20260507142801 58 0 0.0 0.0 0.00 0.00 0.00 70 1020.5
20260507142201 58 0 0.0 0.0 0.00 0.00 0.00 76 1020.5
20260507141601 57 0 0.0 0.0 0.00 0.00 0.00 70 1020.5
20260507141001 57 0 0.0 0.0 0.00 0.00 0.00 76 1020.5
20260507140403 56 0 0.0 0.0 0.00 0.00 0.00 68 1019.7
20260507135801 56 0 0.0 0.0 0.00 0.00 0.00 69 1019.8
20260507135201 56 0 0.0 0.0 0.00 0.00 0.00 69 1019.8
20260507134001 56 0 0.0 0.0 0.00 0.00 0.00 66 1019.6
20260507133401 56 0 0.0 0.0 0.00 0.00 0.00 68 1019.6
20260507132801 56 0 0.0 0.0 0.00 0.00 0.00 69 1019.7
20260507132201 55 0 0.0 0.0 0.00 0.00 0.00 70 1019.7
20260507131601 55 0 0.0 0.0 0.00 0.00 0.00 68 1019.6
20260507131001 54 0 0.0 0.0 0.00 0.00 0.00 62 1019.6
20260507130401 54 0 0.0 0.0 0.00 0.00 0.00 66 1019.6
20260507125801 54 0 0.0 0.0 0.00 0.00 0.00 65 1019.6
20260507125201 54 0 0.0 0.0 0.00 0.00 0.00 69 1019.6
20260507124601 54 0 0.0 0.0 0.00 0.00 0.00 69 1019.6
20260507124001 54 0 0.0 0.0 0.00 0.00 0.00 73 1019.6
20260507123401 54 0 0.0 0.0 0.00 0.00 0.00 77 1019.6
20260507122801 54 0 0.0 0.0 0.00 0.00 0.00 77 1019.6
20260507122201 54 0 0.0 0.0 0.00 0.00 0.00 78 1019.7
20260507121601 54 0 0.0 0.0 0.00 0.00 0.00 78 1019.6
20260507121001 54 0 0.0 0.0 0.00 0.00 0.00 80 1019.7
20260507120401 53 0 0.0 0.0 0.00 0.00 0.00 78 1019.7
20260507115801 53 0 0.0 0.0 0.00 0.00 0.00 78 1019.7
20260507115201 53 0 0.0 0.0 0.00 0.00 0.00 78 1019.7
20260507114601 53 0 0.0 0.0 0.00 0.00 0.00 80 1019.6
20260507114001 53 0 0.0 0.0 0.00 0.00 0.00 81 1019.7
20260507113401 53 0 0.0 0.0 0.00 0.00 0.00 83 1019.6
20260507112602 53 0 0.0 0.0 0.00 0.00 0.00 82 1019.9
20260507112002 52 0 0.0 0.0 0.00 0.00 0.00 80 1020.0
20260507111403 52 0 0.0 0.0 0.00 0.00 0.00 80 1020.0
20260507110802 52 0 0.0 0.0 0.00 0.00 0.00 81 1020.0
20260507110202 52 0 0.0 0.0 0.00 0.00 0.00 81 1020.1
20260507105602 52 0 0.0 0.0 0.00 0.00 0.00 82 1020.1
20260507105002 52 0 0.0 0.0 0.00 0.00 0.00 82 1020.2
20260507104402 52 0 0.0 0.0 0.00 0.00 0.00 83 1020.2
20260507103802 52 0 0.0 0.0 0.00 0.00 0.00 84 1020.2
20260507103202 53 0 0.0 0.0 0.00 0.00 0.00 84 1020.2
20260507102602 53 0 0.0 0.0 0.00 0.00 0.00 84 1020.3
20260507102002 53 0 0.0 0.0 0.00 0.00 0.00 84 1020.2
20260507101402 53 0 0.0 0.0 0.00 0.00 0.00 83 1020.2
20260507100802 53 0 0.0 0.0 0.00 0.00 0.00 83 1020.2
20260507100202 53 0 0.0 0.0 0.00 0.00 0.00 83 1020.2
20260507095602 53 0 0.0 0.0 0.00 0.00 0.00 82 1020.1
20260507095002 53 0 0.0 0.0 0.00 0.00 0.00 82 1020.1
20260507094402 53 0 0.0 0.0 0.00 0.00 0.00 82 1020.2
20260507093802 53 0 0.0 0.0 0.00 0.00 0.00 82 1020.2
20260507093202 53 0 0.0 0.0 0.00 0.00 0.00 81 1020.3
20260507092602 53 0 0.0 0.0 0.00 0.00 0.00 81 1020.4
20260507092002 53 0 0.0 0.0 0.00 0.00 0.00 81 1020.5
20260507091402 54 0 0.0 0.0 0.00 0.00 0.00 80 1020.5
20260507090802 54 0 0.0 0.0 0.00 0.00 0.00 80 1020.6
20260507090202 53 0 0.0 0.0 0.00 0.00 0.00 79 1020.6
20260507085602 53 0 0.0 0.0 0.00 0.00 0.00 80 1020.7
20260507085002 54 0 0.0 0.0 0.00 0.00 0.00 80 1020.7
20260507084402 54 0 0.0 0.0 0.00 0.00 0.00 80 1020.8
20260507083802 54 0 0.0 0.0 0.00 0.00 0.00 81 1020.9
20260507083202 54 0 0.0 0.0 0.00 0.00 0.00 81 1020.9
20260507082602 54 0 0.0 0.0 0.00 0.00 0.00 81 1020.9
20260507082003 54 0 0.0 0.0 0.00 0.00 0.00 81 1021.0
20260507081402 54 0 0.0 0.0 0.00 0.00 0.00 81 1021.0
20260507080802 54 0 0.0 0.0 0.00 0.00 0.00 81 1020.3
20260507080202 54 0 0.0 0.0 0.00 0.00 0.00 81 1020.4
20260507075602 54 0 0.0 0.0 0.00 0.00 0.00 81 1020.3
20260507075002 54 0 0.0 0.0 0.00 0.00 0.00 80 1020.3
20260507074402 54 0 0.0 0.0 0.00 0.00 0.00 80 1020.3
20260507073802 54 0 0.0 0.0 0.00 0.00 0.00 80 1020.5
20260507073202 54 0 0.0 0.0 0.00 0.00 0.00 80 1020.7
20260507072602 54 0 0.0 0.0 0.00 0.00 0.00 80 1020.6
20260507072004 55 0 0.0 0.0 0.00 0.00 0.00 80 1020.7
20260507071402 55 0 0.0 0.0 0.00 0.00 0.00 79 1020.6
20260507070802 55 0 0.0 0.0 0.00 0.00 0.00 79 1020.7
20260507070202 55 0 0.0 0.0 0.00 0.00 0.00 78 1020.7
20260507065602 55 0 0.0 0.0 0.00 0.00 0.00 78 1020.7
20260507065002 56 0 0.0 0.0 0.00 0.00 0.00 78 1020.6
20260507064402 56 0 0.0 0.0 0.00 0.00 0.00 78 1020.7
20260507063802 56 0 0.0 0.0 0.00 0.00 0.00 77 1020.7
20260507063202 56 0 0.0 0.0 0.00 0.00 0.00 76 1020.7
20260507062602 56 0 0.0 0.0 0.00 0.00 0.00 76 1020.6
20260507062003 56 0 0.0 0.0 0.00 0.00 0.00 74 1020.6
20260507061402 57 0 0.0 0.0 0.00 0.00 0.00 74 1020.6
20260507060802 57 0 0.0 0.0 0.00 0.00 0.00 74 1020.6
20260507060202 57 0 0.0 0.0 0.00 0.00 0.00 74 1020.7
20260507055604 57 0 0.0 0.0 0.00 0.00 0.00 74 1020.7
20260507055002 56 0 0.0 0.0 0.00 0.00 0.00 75 1020.7
20260507054402 56 0 0.0 0.0 0.00 0.00 0.00 75 1020.7
20260507053802 56 0 0.0 0.0 0.00 0.00 0.00 75 1020.7
20260507053202 56 0 0.0 0.0 0.00 0.00 0.00 77 1020.7
20260507052602 55 0 0.0 0.0 0.00 0.00 0.00 79 1020.7
20260507052003 55 0 0.0 0.0 0.00 0.00 0.00 81 1020.7
20260507051402 55 0 0.0 0.0 0.00 0.00 0.00 82 1020.7
20260507050802 54 0 0.0 0.0 0.00 0.00 0.00 83 1020.7
20260507050202 54 0 0.0 0.0 0.00 0.00 0.00 83 1020.7
20260507045602 54 0 0.0 0.0 0.00 0.00 0.00 83 1020.7
20260507045004 54 0 0.0 0.0 0.00 0.00 0.00 84 1020.6
20260507044402 53 0 0.0 0.0 0.00 0.00 0.00 84 1020.7
20260507043802 53 0 0.0 0.0 0.00 0.00 0.00 84 1020.7
20260507043202 53 0 0.0 0.0 0.00 0.00 0.00 84 1020.6
20260507042603 53 0 0.0 0.0 0.00 0.00 0.00 83 1020.6
20260507042003 53 0 0.0 0.0 0.00 0.00 0.00 83 1020.7
20260507041402 53 0 0.0 0.0 0.00 0.00 0.00 83 1020.7
20260507040802 53 0 0.0 0.0 0.00 0.00 0.00 83 1020.7
20260507040202 53 0 0.0 0.0 0.00 0.00 0.00 84 1020.7
20260507035602 52 0 0.0 0.0 0.00 0.00 0.00 84 1020.6
20260507035003 53 0 0.0 0.0 0.00 0.00 0.00 84 1020.5
20260507034402 53 0 0.0 0.0 0.00 0.00 0.00 84 1020.5
20260507033802 53 0 0.0 0.0 0.00 0.00 0.00 83 1020.6
20260507033202 53 0 0.0 0.0 0.00 0.00 0.00 83 1020.5
20260507032602 53 0 0.0 0.0 0.00 0.00 0.00 83 1019.7
20260507032002 53 0 0.0 0.0 0.00 0.00 0.00 83 1019.6
20260507031402 53 0 0.0 0.0 0.00 0.00 0.00 83 1019.6
20260507030802 53 0 0.0 0.0 0.00 0.00 0.00 83 1019.6
20260507030202 53 0 0.0 0.0 0.00 0.00 0.00 80 1019.6
20260507025602 54 0 0.0 0.0 0.00 0.00 0.00 79 1019.5
20260507025002 54 0 0.0 0.0 0.00 0.00 0.00 78 1019.4
20260507024201 55 0 0.0 0.0 0.00 0.00 0.00 78 1019.3
20260507023601 55 0 0.0 0.0 0.00 0.00 0.00 78 1019.4
20260507023002 55 0 0.0 0.0 0.00 0.00 0.00 79 1019.3
20260507022401 55 0 0.0 1.7 0.00 0.00 0.00 78 1019.3
20260507021801 55 0 0.0 2.6 0.00 0.00 0.00 78 1019.3
20260507021201 55 0 0.0 1.7 0.00 0.00 0.00 78 1019.3
20260507020601 55 0 0.0 1.7 0.00 0.00 0.00 77 1019.4
20260507020004 56 0 0.0 0.9 0.00 0.00 0.00 77 1019.3
20260507015401 56 0 0.0 3.5 0.00 0.00 0.00 76 1019.3
20260507014801 56 251 0.9 5.2 0.00 0.00 0.00 76 1019.4
20260507014201 57 244 0.9 6.1 0.00 0.00 0.00 76 1019.3
20260507013601 57 259 1.7 6.1 0.00 0.00 0.00 77 1019.3
20260507013003 57 247 1.7 5.2 0.00 0.00 0.00 75 1019.3
20260507012401 57 262 0.9 5.2 0.00 0.00 0.00 76 1019.2
20260507011801 58 0 0.0 4.3 0.00 0.00 0.00 72 1019.1
20260507011201 58 215 0.9 6.1 0.00 0.00 0.00 72 1019.1
20260507010601 59 237 1.7 6.1 0.00 0.00 0.00 72 1019.2
20260507010003 59 265 1.7 6.1 0.00 0.00 0.00 73 1019.1
20260507005401 58 218 0.9 4.3 0.00 0.00 0.00 71 1019.2
20260507004801 59 0 0.0 7.0 0.00 0.00 0.00 72 1019.2
20260507004201 59 196 0.9 6.1 0.00 0.00 0.00 72 1019.2
20260507003601 59 237 1.7 7.8 0.00 0.00 0.00 72 1019.3
20260507003001 59 216 3.5 8.7 0.00 0.00 0.00 70 1019.2
20260507002401 59 210 0.9 7.0 0.00 0.00 0.00 70 1019.2
20260507001801 59 0 0.0 5.2 0.00 0.00 0.00 69 1019.1
20260507001201 60 246 2.6 7.8 0.00 0.00 0.00 70 1019.2
20260507000601 60 205 1.7 7.8 0.00 0.00 0.00 70 1019.3
20260507000002 60 233 3.5 7.0 0.00 0.00 0.00 71 1019.2
20260506235401 60 235 2.6 7.8 0.00 0.00 0.00 70 1019.2
20260506234801 60 247 1.7 6.1 0.00 0.00 0.00 71 1019.3
20260506234201 60 230 2.6 7.0 0.00 0.00 0.00 71 1019.2
20260506233601 59 219 2.6 8.7 0.00 0.00 0.00 71 1019.4
20260506233003 59 260 3.5 8.7 0.00 0.00 0.00 71 1019.3
20260506232401 60 214 2.6 7.0 0.00 0.00 0.00 72 1018.6
20260506231801 59 253 2.6 7.0 0.00 0.00 0.00 73 1018.5
20260506231201 60 209 2.6 7.0 0.00 0.00 0.00 71 1018.6
20260506230601 60 215 1.7 6.1 0.00 0.00 0.00 71 1018.7
20260506230002 60 220 0.9 7.8 0.00 0.00 0.00 71 1018.7
20260506225401 60 217 0.9 7.0 0.00 0.00 0.00 71 1018.8
20260506224801 60 219 2.6 7.8 0.00 0.00 0.00 71 1018.9
20260506224201 60 227 2.6 6.1 0.00 0.00 0.00 70 1018.8
20260506223601 60 0 0.0 7.0 0.00 0.00 0.00 72 1018.9
20260506223001 60 231 2.6 6.1 0.00 0.00 0.00 71 1019.0
20260506222401 60 208 0.9 7.0 0.00 0.00 0.00 73 1019.0
20260506221801 60 199 0.9 7.0 0.00 0.00 0.00 71 1019.0
20260506221201 60 266 1.7 7.0 0.00 0.00 0.00 73 1019.1
20260506220601 60 216 1.7 7.0 0.00 0.00 0.00 74 1019.2
20260506220001 60 218 1.7 7.0 0.00 0.00 0.00 74 1019.2
20260506215401 60 0 0.0 5.2 0.00 0.00 0.00 71 1019.2
20260506214801 59 0 0.0 6.1 0.00 0.00 0.00 74 1019.2
20260506214201 59 261 0.9 5.2 0.00 0.00 0.00 74 1019.3
20260506213601 59 0 0.0 5.2 0.00 0.00 0.00 77 1019.4
20260506213001 59 203 1.7 4.3 0.00 0.00 0.00 74 1019.5
20260506212401 59 0 0.0 4.3 0.00 0.00 0.00 74 1019.5
20260506211801 59 0 0.0 6.1 0.00 0.00 0.00 76 1019.6
20260506211201 59 0 0.0 1.7 0.00 0.00 0.00 75 1019.6